RYR957B LICR-LIPZ

Flight info

Callsign RYR957B
Flight time 1h 16m
Altitude 34000
Route URCAH T111 BUDIN DCT TEA DCT LANLI DCT AMLON DCT BELOV DCT ARDAM Z456 OTGIG
Aircraft B738/M-SDE2E3FGHIRWXY/LB1

Departure

Time 2026-05-06 20:58
Airport Reggio Calabria Airport (LICR)

Arrival

Time 2026-05-06 22:14
Airport Venice Marco Polo Airport (LIPZ)
Time Latitude Longitude Altitude Speed Heading
2026-05-06 20:40 38.07358 15.65293 75 ft 0 kts 118°
2026-05-06 20:52 38.07357 15.65294 74 ft 1 kts 148°
2026-05-06 20:52 38.07341 15.65273 73 ft 6 kts 257°
2026-05-06 20:53 38.07328 15.65200 71 ft 10 kts 250°
2026-05-06 20:53 38.07291 15.65108 67 ft 12 kts 251°
2026-05-06 20:53 38.07331 15.65020 67 ft 11 kts 327°
2026-05-06 20:53 38.07411 15.64967 72 ft 14 kts 333°
2026-05-06 20:54 38.07512 15.64900 77 ft 18 kts 333°
2026-05-06 20:54 38.07637 15.64821 84 ft 21 kts 333°
2026-05-06 20:54 38.07782 15.64726 91 ft 25 kts 332°
2026-05-06 20:54 38.07935 15.64625 95 ft 22 kts 333°
2026-05-06 20:55 38.08092 15.64534 98 ft 11 kts 354°
2026-05-06 20:55 38.08102 15.64516 97 ft 3 kts 154°
2026-05-06 20:55 38.08093 15.64523 97 ft 0 kts 152°
2026-05-06 20:57 38.08089 15.64525 97 ft 3 kts 152°
2026-05-06 20:57 38.07857 15.64678 93 ft 73 kts 152°
2026-05-06 20:57 38.07200 15.65104 62 ft 137 kts 153°
2026-05-06 20:58 38.06246 15.65718 398 ft 157 kts 154°
2026-05-06 20:58 38.05213 15.66267 963 ft 166 kts 171°
2026-05-06 20:58 38.04088 15.66109 1578 ft 170 kts 203°
2026-05-06 20:58 38.03110 15.65209 1953 ft 186 kts 229°
2026-05-06 20:59 38.02445 15.63729 2300 ft 204 kts 253°
2026-05-06 20:59 38.02431 15.61863 2714 ft 220 kts 289°
2026-05-06 20:59 38.03210 15.60194 3247 ft 228 kts 309°
2026-05-06 20:59 38.04606 15.58117 4050 ft 234 kts 309°
2026-05-06 21:00 38.05292 15.57067 4449 ft 237 kts 308°
2026-05-06 21:00 38.06314 15.55442 5087 ft 239 kts 306°
2026-05-06 21:00 38.07350 15.53758 5714 ft 242 kts 306°
2026-05-06 21:00 38.08720 15.51520 6561 ft 245 kts 305°
2026-05-06 21:01 38.09415 15.50381 6990 ft 247 kts 305°
2026-05-06 21:01 38.10805 15.48107 7909 ft 247 kts 304°
2026-05-06 21:01 38.11505 15.46960 8336 ft 248 kts 304°
2026-05-06 21:01 38.12560 15.45225 9033 ft 249 kts 303°
2026-05-06 21:02 38.13614 15.43511 9700 ft 251 kts 303°
2026-05-06 21:02 38.14750 15.41766 10180 ft 263 kts 305°
2026-05-06 21:02 38.15958 15.39969 10610 ft 276 kts 305°
2026-05-06 21:02 38.17239 15.38067 11026 ft 291 kts 305°
2026-05-06 21:03 38.18571 15.36079 11479 ft 303 kts 305°
2026-05-06 21:03 38.20457 15.33252 12073 ft 322 kts 304°
2026-05-06 21:03 38.21429 15.31803 12352 ft 331 kts 304°
2026-05-06 21:03 38.22978 15.29527 12748 ft 347 kts 305°
2026-05-06 21:04 38.24585 15.27198 13384 ft 353 kts 305°
2026-05-06 21:04 38.26212 15.24849 14138 ft 356 kts 305°
2026-05-06 21:04 38.27826 15.22516 14935 ft 358 kts 305°
2026-05-06 21:04 38.29483 15.20113 15738 ft 360 kts 306°
2026-05-06 21:05 38.31813 15.17069 16782 ft 366 kts 313°
2026-05-06 21:05 38.33145 15.15758 17265 ft 372 kts 320°
2026-05-06 21:05 38.35420 15.14141 18038 ft 377 kts 329°
2026-05-06 21:05 38.38653 15.12365 18856 ft 386 kts 333°
2026-05-06 21:06 38.40335 15.11527 19247 ft 390 kts 334°
2026-05-06 21:06 38.42874 15.10289 19826 ft 396 kts 334°
2026-05-06 21:06 38.45429 15.09036 20444 ft 399 kts 334°
2026-05-06 21:06 38.48938 15.07364 21223 ft 406 kts 337°
2026-05-06 21:07 38.51626 15.06272 21804 ft 410 kts 339°
2026-05-06 21:07 38.53457 15.05586 22198 ft 413 kts 340°
2026-05-06 21:07 38.56225 15.04580 22674 ft 418 kts 340°
2026-05-06 21:07 38.59041 15.03565 23188 ft 423 kts 341°
2026-05-06 21:08 38.61855 15.02543 23745 ft 425 kts 340°
2026-05-06 21:08 38.64713 15.01493 24235 ft 430 kts 340°
2026-05-06 21:08 38.67607 15.00421 24741 ft 434 kts 340°
2026-05-06 21:08 38.71490 14.98969 25416 ft 438 kts 340°
2026-05-06 21:09 38.74408 14.97869 25869 ft 442 kts 340°
2026-05-06 21:09 38.77369 14.96749 26391 ft 444 kts 340°
2026-05-06 21:09 38.79330 14.96006 26693 ft 447 kts 340°
2026-05-06 21:09 38.82323 14.94869 27112 ft 451 kts 340°
2026-05-06 21:10 38.86330 14.93344 27696 ft 455 kts 341°
2026-05-06 21:10 38.88367 14.92568 27965 ft 458 kts 340°
2026-05-06 21:10 38.91415 14.91405 28397 ft 461 kts 340°
2026-05-06 21:10 38.94501 14.90227 28911 ft 462 kts 341°
2026-05-06 21:11 38.97583 14.89051 29509 ft 460 kts 341°
2026-05-06 21:11 39.00614 14.87894 30131 ft 458 kts 341°
2026-05-06 21:11 39.03665 14.86728 30736 ft 455 kts 341°
2026-05-06 21:11 39.06707 14.85564 31318 ft 453 kts 341°
2026-05-06 21:12 39.09676 14.84426 31941 ft 450 kts 341°
2026-05-06 21:12 39.12690 14.83270 32507 ft 447 kts 340°
2026-05-06 21:12 39.15630 14.82141 33079 ft 443 kts 340°
2026-05-06 21:12 39.18568 14.81011 33642 ft 440 kts 340°
2026-05-06 21:13 39.22459 14.79514 33987 ft 442 kts 340°
2026-05-06 21:13 39.27430 14.77595 33985 ft 444 kts 340°
2026-05-06 21:14 39.33331 14.75315 33990 ft 444 kts 340°
2026-05-06 21:14 39.40219 14.72648 33994 ft 443 kts 340°
2026-05-06 21:15 39.46090 14.70369 33997 ft 444 kts 340°
2026-05-06 21:15 39.52014 14.68065 33996 ft 445 kts 340°
2026-05-06 21:16 39.57909 14.65772 33999 ft 442 kts 340°
2026-05-06 21:16 39.63793 14.63480 34003 ft 443 kts 340°
2026-05-06 21:17 39.68684 14.61570 34004 ft 445 kts 340°
2026-05-06 21:17 39.75574 14.58877 34005 ft 443 kts 340°
2026-05-06 21:18 39.81462 14.56569 34007 ft 445 kts 340°
2026-05-06 21:18 39.87405 14.54234 34016 ft 445 kts 340°
2026-05-06 21:19 39.92321 14.52300 34014 ft 445 kts 340°
2026-05-06 21:19 39.99205 14.49589 34018 ft 446 kts 340°
2026-05-06 21:20 40.05145 14.47244 34020 ft 445 kts 340°
2026-05-06 21:20 40.10092 14.45288 34023 ft 446 kts 340°
2026-05-06 21:21 40.16008 14.42944 34020 ft 446 kts 340°
2026-05-06 21:21 40.22939 14.40195 34028 ft 448 kts 340°
2026-05-06 21:22 40.27891 14.38230 34027 ft 447 kts 340°
2026-05-06 21:22 40.33866 14.35851 34034 ft 450 kts 339°
2026-05-06 21:23 40.39818 14.33476 34034 ft 449 kts 339°
2026-05-06 21:23 40.46747 14.30709 34031 ft 448 kts 339°
2026-05-06 21:24 40.51742 14.28707 34036 ft 448 kts 339°
2026-05-06 21:24 40.58683 14.25922 34041 ft 448 kts 339°
2026-05-06 21:25 40.64620 14.23534 34043 ft 448 kts 338°
2026-05-06 21:25 40.69568 14.21542 34043 ft 447 kts 338°
2026-05-06 21:26 40.75528 14.19137 34046 ft 448 kts 338°
2026-05-06 21:26 40.82467 14.16333 34047 ft 446 kts 338°
2026-05-06 21:27 40.87410 14.14330 34050 ft 449 kts 338°
2026-05-06 21:27 40.93397 14.11900 34049 ft 447 kts 338°
2026-05-06 21:28 40.99301 14.09502 34047 ft 448 kts 338°
2026-05-06 21:28 41.05311 14.07054 34049 ft 449 kts 338°
2026-05-06 21:29 41.11270 14.04623 34044 ft 449 kts 338°
2026-05-06 21:29 41.18229 14.01778 34039 ft 450 kts 338°
2026-05-06 21:30 41.24196 13.99334 34037 ft 449 kts 338°
2026-05-06 21:30 41.29154 13.97309 34040 ft 449 kts 338°
2026-05-06 21:31 41.35221 13.95265 34038 ft 453 kts 343°
2026-05-06 21:31 41.41425 13.93544 34035 ft 453 kts 344°
2026-05-06 21:32 41.47582 13.91873 34036 ft 453 kts 343°
2026-05-06 21:32 41.56806 13.89304 34032 ft 453 kts 343°
2026-05-06 21:33 41.62974 13.87551 34032 ft 454 kts 343°
2026-05-06 21:33 41.70161 13.85492 34033 ft 452 kts 342°
2026-05-06 21:34 41.76312 13.83718 34041 ft 453 kts 342°
2026-05-06 21:34 41.81481 13.82223 34038 ft 454 kts 342°
2026-05-06 21:35 41.87654 13.80434 34037 ft 453 kts 342°
2026-05-06 21:35 41.93808 13.78651 34041 ft 453 kts 342°
2026-05-06 21:36 41.99983 13.76857 34034 ft 454 kts 342°
2026-05-06 21:36 42.07189 13.74758 34035 ft 454 kts 342°
2026-05-06 21:37 42.12311 13.73265 34025 ft 452 kts 342°
2026-05-06 21:37 42.19479 13.71169 34021 ft 453 kts 342°
2026-05-06 21:38 42.24628 13.69661 34009 ft 453 kts 342°
2026-05-06 21:38 42.30750 13.67864 34021 ft 454 kts 342°
2026-05-06 21:39 42.36939 13.66044 34014 ft 452 kts 342°
2026-05-06 21:39 42.44079 13.63942 34005 ft 452 kts 342°
2026-05-06 21:40 42.49205 13.62428 34004 ft 451 kts 342°
2026-05-06 21:40 42.55326 13.60615 34009 ft 452 kts 342°
2026-05-06 21:41 42.61470 13.58793 34010 ft 452 kts 342°
2026-05-06 21:41 42.68643 13.56664 34007 ft 451 kts 342°
2026-05-06 21:42 42.74725 13.54857 33998 ft 449 kts 342°
2026-05-06 21:42 42.79834 13.53331 33997 ft 450 kts 342°
2026-05-06 21:43 42.86939 13.51206 33990 ft 448 kts 342°
2026-05-06 21:43 42.93038 13.49378 33996 ft 449 kts 342°
2026-05-06 21:44 42.98099 13.47859 33980 ft 448 kts 342°
2026-05-06 21:44 43.04204 13.46024 33981 ft 449 kts 341°
2026-05-06 21:45 43.11259 13.43902 33986 ft 447 kts 341°
2026-05-06 21:45 43.17381 13.42051 33971 ft 451 kts 341°
2026-05-06 21:46 43.23438 13.40220 33964 ft 448 kts 341°
2026-05-06 21:46 43.29548 13.38368 33964 ft 449 kts 341°
2026-05-06 21:47 43.35653 13.36512 33962 ft 450 kts 342°
2026-05-06 21:47 43.40728 13.34969 33961 ft 448 kts 341°
2026-05-06 21:48 43.46805 13.33119 33951 ft 448 kts 341°
2026-05-06 21:48 43.52893 13.31259 33955 ft 448 kts 341°
2026-05-06 21:49 43.58761 13.29462 33957 ft 448 kts 341°
2026-05-06 21:49 43.65846 13.27287 33958 ft 448 kts 341°
2026-05-06 21:50 43.70905 13.25731 33959 ft 447 kts 341°
2026-05-06 21:50 43.76954 13.23872 33874 ft 441 kts 341°
2026-05-06 21:51 43.80869 13.22675 33470 ft 431 kts 341°
2026-05-06 21:51 43.82810 13.22080 33183 ft 429 kts 341°
2026-05-06 21:51 43.85712 13.21186 32708 ft 426 kts 340°
2026-05-06 21:51 43.89502 13.20013 32066 ft 422 kts 341°
2026-05-06 21:52 43.92371 13.19095 31575 ft 418 kts 339°
2026-05-06 21:52 43.94213 13.18370 31241 ft 414 kts 335°
2026-05-06 21:52 43.96853 13.17002 30761 ft 406 kts 329°
2026-05-06 21:52 43.99376 13.15316 30275 ft 399 kts 325°
2026-05-06 21:53 44.01792 13.13487 29817 ft 395 kts 323°
2026-05-06 21:53 44.04940 13.10966 29179 ft 390 kts 322°
2026-05-06 21:53 44.06510 13.09689 28859 ft 389 kts 322°
2026-05-06 21:53 44.09566 13.07203 28232 ft 385 kts 323°
2026-05-06 21:54 44.11899 13.05316 27759 ft 382 kts 323°
2026-05-06 21:54 44.13411 13.04097 27460 ft 381 kts 323°
2026-05-06 21:54 44.16447 13.01658 26845 ft 377 kts 323°
2026-05-06 21:54 44.18710 12.99846 26385 ft 374 kts 323°
2026-05-06 21:55 44.20928 12.98071 25941 ft 371 kts 323°
2026-05-06 21:55 44.22411 12.96886 25640 ft 370 kts 323°
2026-05-06 21:55 44.24628 12.95112 25195 ft 367 kts 323°
2026-05-06 21:55 44.26822 12.93358 24748 ft 364 kts 323°
2026-05-06 21:56 44.29015 12.91603 24301 ft 362 kts 323°
2026-05-06 21:56 44.31202 12.89850 23860 ft 360 kts 323°
2026-05-06 21:56 44.34096 12.87520 23273 ft 366 kts 323°
2026-05-06 21:56 44.36290 12.85758 22825 ft 365 kts 323°
2026-05-06 21:57 44.37762 12.84579 22527 ft 363 kts 324°
2026-05-06 21:57 44.40668 12.82258 21938 ft 360 kts 324°
2026-05-06 21:57 44.42102 12.81111 21650 ft 358 kts 324°
2026-05-06 21:57 44.44248 12.79390 21209 ft 356 kts 324°
2026-05-06 21:58 44.46378 12.77683 20775 ft 353 kts 324°
2026-05-06 21:58 44.49210 12.75411 20191 ft 350 kts 324°
2026-05-06 21:58 44.51320 12.73716 19766 ft 347 kts 324°
2026-05-06 21:58 44.53381 12.72058 19346 ft 345 kts 324°
2026-05-06 21:59 44.55456 12.70385 18915 ft 342 kts 324°
2026-05-06 21:59 44.56831 12.69275 18633 ft 341 kts 324°
2026-05-06 21:59 44.59535 12.67083 18077 ft 337 kts 324°
2026-05-06 21:59 44.61538 12.65458 17664 ft 334 kts 325°
2026-05-06 22:00 44.62868 12.64377 17389 ft 332 kts 325°
2026-05-06 22:00 44.65517 12.62223 16842 ft 328 kts 325°
2026-05-06 22:00 44.66822 12.61162 16577 ft 327 kts 325°
2026-05-06 22:00 44.69442 12.59030 16034 ft 323 kts 325°
2026-05-06 22:01 44.71365 12.57464 15630 ft 320 kts 325°
2026-05-06 22:01 44.72649 12.56418 15368 ft 319 kts 326°
2026-05-06 22:01 44.75179 12.54357 14841 ft 315 kts 326°
2026-05-06 22:01 44.77045 12.52835 14454 ft 312 kts 325°
2026-05-06 22:02 44.78933 12.51294 14059 ft 310 kts 325°
2026-05-06 22:02 44.80159 12.50282 13790 ft 309 kts 324°
2026-05-06 22:02 44.82569 12.48140 13248 ft 305 kts 322°
2026-05-06 22:02 44.84308 12.46516 12871 ft 302 kts 322°
2026-05-06 22:03 44.85481 12.45415 12631 ft 301 kts 322°
2026-05-06 22:03 44.87777 12.43276 12128 ft 299 kts 322°
2026-05-06 22:03 44.88939 12.42201 11876 ft 297 kts 322°
2026-05-06 22:03 44.91234 12.40087 11379 ft 295 kts 322°
2026-05-06 22:04 44.92951 12.38508 11006 ft 293 kts 323°
2026-05-06 22:04 44.94089 12.37459 10754 ft 292 kts 323°
2026-05-06 22:04 44.95770 12.35911 10394 ft 290 kts 323°
2026-05-06 22:04 44.98009 12.33846 9911 ft 288 kts 322°
2026-05-06 22:05 44.99677 12.32309 9728 ft 280 kts 322°
2026-05-06 22:05 45.01295 12.30815 9339 ft 280 kts 322°
2026-05-06 22:05 45.02926 12.29306 8980 ft 278 kts 322°
2026-05-06 22:05 45.04535 12.27817 8655 ft 276 kts 322°
2026-05-06 22:06 45.05618 12.26815 8423 ft 275 kts 323°
2026-05-06 22:06 45.07206 12.25383 8078 ft 275 kts 327°
2026-05-06 22:06 45.08970 12.24285 7736 ft 276 kts 337°
2026-05-06 22:06 45.11417 12.23206 7272 ft 275 kts 340°
2026-05-06 22:07 45.12622 12.22689 7037 ft 274 kts 340°
2026-05-06 22:07 45.15032 12.21598 6567 ft 272 kts 338°
2026-05-06 22:07 45.16818 12.20746 6218 ft 270 kts 338°
2026-05-06 22:07 45.18001 12.20171 5984 ft 269 kts 338°
2026-05-06 22:08 45.20364 12.19013 5514 ft 268 kts 338°
2026-05-06 22:08 45.21532 12.18440 5286 ft 267 kts 338°
2026-05-06 22:08 45.23264 12.17590 4942 ft 266 kts 339°
2026-05-06 22:08 45.25008 12.16737 4586 ft 265 kts 339°
2026-05-06 22:09 45.26751 12.15885 4234 ft 263 kts 339°
2026-05-06 22:09 45.28463 12.15047 3889 ft 262 kts 339°
2026-05-06 22:09 45.30189 12.14201 3534 ft 261 kts 340°
2026-05-06 22:09 45.31941 12.13531 3177 ft 261 kts 351°
2026-05-06 22:10 45.34246 12.14030 2982 ft 250 kts 27°
2026-05-06 22:10 45.35529 12.15596 2991 ft 239 kts 51°
2026-05-06 22:10 45.36563 12.17396 2994 ft 236 kts 46°
2026-05-06 22:10 45.37750 12.18998 2985 ft 227 kts 39°
2026-05-06 22:11 45.38549 12.19938 2870 ft 223 kts 38°
2026-05-06 22:11 45.40096 12.21847 2490 ft 223 kts 40°
2026-05-06 22:11 45.40863 12.22844 2286 ft 220 kts 41°
2026-05-06 22:11 45.42331 12.24732 1893 ft 209 kts 40°
2026-05-06 22:12 45.43397 12.26084 1609 ft 200 kts 40°
2026-05-06 22:12 45.44391 12.27356 1376 ft 187 kts 40°
2026-05-06 22:12 45.45031 12.28175 1161 ft 180 kts 40°
2026-05-06 22:12 45.46181 12.29647 861 ft 164 kts 41°
2026-05-06 22:13 45.46998 12.30698 611 ft 153 kts 39°
2026-05-06 22:13 45.47781 12.31694 424 ft 148 kts 41°
2026-05-06 22:13 45.48525 12.32640 229 ft 144 kts 41°
2026-05-06 22:13 45.49269 12.33600 75 ft 142 kts 40°
2026-05-06 22:14 45.49970 12.34489 8 ft 119 kts 41°
2026-05-06 22:14 45.50378 12.35008 8 ft 36 kts 34°
2026-05-06 22:14 45.50557 12.35072 8 ft 11 kts
2026-05-06 22:14 45.50619 12.35012 8 ft 11 kts 277°
2026-05-06 22:15 45.50609 12.34887 6 ft 14 kts 263°
2026-05-06 22:15 45.50603 12.34748 6 ft 14 kts 271°
2026-05-06 22:15 45.50602 12.34655 6 ft 14 kts 266°
2026-05-06 22:15 45.50596 12.34478 7 ft 10 kts 266°
2026-05-06 22:16 45.50610 12.34390 8 ft 11 kts 303°
2026-05-06 22:16 45.50673 12.34287 8 ft 16 kts 312°
2026-05-06 22:16 45.50750 12.34164 8 ft 15 kts 311°
2026-05-06 22:16 45.50794 12.34044 8 ft 12 kts 294°
2026-05-06 22:17 45.50829 12.33970 8 ft 5 kts 279°
2026-05-06 22:17 45.50820 12.33933 8 ft 6 kts 233°
2026-05-06 22:17 45.50812 12.33922 8 ft 0 kts 221°